Погода в Менделеево

Россия / Пермский край     58°10′10″N   54°59′38″E
темп.,
°C
ветер,
м/с
пор.,
м/с
влажн.,
%
обл.,
%
осадки,
мм/ч
давл.,
гПа
погр.,
м
13 мая, чт
чт1323:00+17в0150100 0.0 102711
02:00+15ю1155100 0.0 102811
05:00+14юв0060100 0.0 102810
08:00+18вюв015295 0.0 1028110
11:00+23ююв123890 0.0 1028645
14:00+26юз233599 0.0 10261704
17:00+26юз23330 0.0 10252235
20:00+23ююз24492 0.0 102573
14 мая, пт
пт1423:00+18ююз225545 0.0 102516
02:00+16ююз22585 0.0 102518
05:00+15ююз22645 0.0 102532
08:00+19ююз37565 0.0 1024258
11:00+24ююз5739100 0.0 10231041
14:00+26ююз6936100 0.0 10221598
17:00+26ююз6103692 0.0 10212179
20:00+23юз4949100 0.0 1019279
15 мая, сб
сб1523:00+18юз3869100 0.3 1020155
02:00+16зюз228195 0.3 102022
05:00+15ююз228633 0.3 102022
08:00+18зюз356957 0.0 1020247
11:00+24зюз454999 0.0 1019971
14:00+27зюз473871 0.0 10191984
17:00+27зюз5840100 0.0 10182161
20:00+24юз494787 0.0 1017279
16 мая, вс
вс1623:00+19ююз3116185 0.0 1017238
02:00+17юз31161100 0.0 1017247
05:00+15юз31063100 0.0 1018198
08:00+19юз4105367 0.0 1018322
11:00+26юз58345 0.0 1017934
14:00+29юз710255 0.0 10162839
17:00+29юз6103040 0.0 10143333
20:00+25юз5104179 0.0 1013468
17 мая, пн
пн1723:00+21юз515505 0.0 1013498
02:00+16юз23715 0.1 101440
05:00+15юз310815 0.3 1013208
08:00+19зюз410731 0.0 1014455
11:00+23з711466 0.0 10141684
14:00+24з7103615 0.0 10142162
17:00+24з693756 0.0 10142653
20:00+20сз385792 0.0 1015483